Regional Weather Roundup
Issued by NWS Charleston, SC

Home | Current Version | Previous Version | Text Only | Print | Product List | Glossary On
Versions: 1 2 3 4 5 6 7 8 9 10 11 12 13 14 15 16 17 18 19 20 21 22 23 24 25 26 27 28 29 30 31 32 33 34 35 36 37 38 39 40 41 42 43 44 45 46 47 48 49 50
000
ASUS42 KCHS 012127
RWRCHS

REGIONAL WEATHER ROUNDUP
NATIONAL WEATHER SERVICE CHARLESTON SC
500 PM EDT TUE SEP 01 2015

NOTE: "FAIR" INDICATES FEW OR NO CLOUDS BELOW 12,000 FEET WITH NO
SIGNIFICANT WEATHER AND/OR OBSTRUCTIONS TO VISIBILITY.

NOT ALL STATIONS ARE QUALITY CONTROLLED BY THE NATIONAL
WEATHER SERVICE. USE DATA WITH CAUTION...ESPECIALLY
DEWPOINT OBSERVATIONS.

SCZ027-030-031-034>040-042>050-012200-
...SOUTHEAST SOUTH CAROLINA...

CITY           SKY/WX    TMP DP  RH WIND       PRES   REMARKS
N CHARLESTON   PTSUNNY   85  73  67 S13       30.06S HX  91
WATERFRONT PRK   N/A     83  75  76 S8        30.05F HX  90
MOUNT PLEASANT LGT RAIN  84  73  70 S6        30.07S HX  91
JOHNS ISLAND   CLOUDY    84  75  74 SE5       30.07S HX  92
PINOPOLIS        N/A     93  72  49 CALM      29.99R HX 100
MONCKS CORNER  FAIR      90  68  48 SE5       30.06S HX  93
SUMMERVILLE    MOCLDY    90  70  51 S3        30.07S HX  95
BEAUFORT MCAS  CLOUDY    84  75  74 SE3       30.07F HX  92
BEAUFORT ARPT  CLOUDY    82  75  78 CALM      30.06F
HILTON HEAD IS PTSUNNY   82  75  78 CALM      30.08F
WALTERBORO     PTCLDY    90  70  51 S3        30.06F HX  95
ALLENDALE      CLOUDY    88  70  55 VRB5      30.05F HX  92

...SOUTHERN MIDLANDS AND PEE DEE...

CITY           SKY/WX    TMP DP  RH WIND       PRES   REMARKS
GEORGETOWN     NOT AVBL
KINGSTREE      NOT AVBL
ORANGEBURG     MOSUNNY   90  67  46 SW5       30.05F HX  93
BARNWELL       FAIR      91  68  46 CALM      30.06F HX  95
AIKEN          CLOUDY    86  63  45 S5        30.10F
MANNING        FAIR      88  63  42 S3        30.05S
COLUMBIA       MOSUNNY   91  63  39 SW6       30.04F HX  92
SUMTER         MOSUNNY   91  66  43 S6        30.03F HX  94
FLORENCE       MOSUNNY   89  68  49 CALM      30.05S HX  93
MYRTLE BEACH   PTSUNNY   84  72  65 S13       30.08S
N MYRTLE BEACH MOSUNNY   84  74  71 S10       30.06S HX  91

$$

GAZ063-065-086>088-099>101-113>116-118-119-134>141-150-012200-
...SOUTHEAST GEORGIA...

CITY           SKY/WX    TMP DP  RH WIND       PRES   REMARKS
SAVANNAH ARPT  CLOUDY    84  72  67 E7        30.06F
HUNTER AAF     PTSUNNY   85  78  79 E8        30.04F HX  98
FORT STEWART   PTSUNNY   85  74  70 SE3       30.04F HX  92
STATESBORO     PTSUNNY   88  73  61 CALM      30.06F HX  96
SYLVANIA       PTCLDY    89  73  59 CALM      30.07S HX  97
CLAXTON        NOT AVBL

...CSRA...CENTRAL AND FAR SOUTHEAST GEORGIA...

CITY           SKY/WX    TMP DP  RH WIND       PRES   REMARKS
THOMSON        MOSUNNY   90  70  51 CALM      30.11F HX  94
AUGUSTA-BUSH   MOSUNNY   89  67  47 E6        30.05F HX  92
AUGUSTA-DANIEL MOSUNNY   89  65  44 CALM      30.07F HX  91
SWAINSBORO     FAIR      91  63  38 CALM      30.06F HX  92
VIDALIA        CLOUDY    86  72  62 SE3       30.07S HX  92
EASTMAN        FAIR      91  67  45 E3        30.09R HX  95
HAZLEHURST     CLOUDY    84  75  74 S3        30.06S HX  92
ALMA           CLOUDY    83  74  74 E5        30.06F
WAYCROSS       CLOUDY    82  80  96 NE5       30.06S HX  93
JESUP          CLOUDY    86  79  79 E7        30.06F HX  99
BAXLEY         CLOUDY    82  75  78 S3        30.07S
BRUNSWICK      CLOUDY    81  77  89 NE5       30.06F
SAINT SIMONS   CLOUDY    82  75  79 E7        30.05F

$$

SCZ027-028-034-036>038-045-046-048>050-GAZ119-141-012200-
...LAKE AND SUPPLEMENTAL COASTAL OBSERVATIONS...

STATION/POSITION TIME  TEMP    WIND        PRES    WAVE   SWELL
                       AIR SEA DIR/SP/G            HT/PER HT/PER/DIR
                 (UTC) (F)     (DEG/KT/KT) (MB)    (FT/S) (FT/S/D)
UPR LAKE MARION  NOT AVBL
WINYAH BAY       2045   84                   N/A
LAKE MURRAY      2100   90     200/  3/  4 1016.9F
ACE BASIN NERRS  NOT AVBL
FORT PULASKI     2100   81 83   80/  7/  8 1018.6F
SAPELO ISLAND    2100   81      70/  2     1018.0S

$$

ANZ835-935-AMZ111-154-330-350-352-354-370-450-454-472-012200-
...C-MAN AND BUOY OBSERVATIONS...

STATION/POSITION TIME  TEMP    WIND        PRES    WAVE   SWELL
                       AIR SEA DIR/SP/G            HT/PER HT/PER/DIR
                 (UTC) (F)     (DEG/KT/KT) (MB)    (FT/S) (FT/S/D)
BUOY 41004       2050   82 83   80/  6/  6 1018.3F   2/ 7   2/ 7
BUOY 41008       2050   80 84   50/ 10/ 10 1018.2F   2/ 9   2/ 80/ 9
FOLLY BEACH CMAN 2100   82     150/  9/  9 1018.6F
CAPERS NEARSHORE 2008   82     170/ 10/ 12 1018.7F
FRIPP NEARSHORE  2000   84     120/  4/  6 1018.4F


STATION/POSITION TIME  TEMP    WIND        PRES    WAVE   SWELL
                       AIR SEA DIR/SP/G            HT/PER HT/PER/DIR
                 (UTC) (F)     (DEG/KT/KT) (MB)    (FT/S) (FT/S/D)
5E ST. MARYS GA  2021      86                N/A     2/ 8
FRYING PAN BUOY  2050   81 84  270/  2/  2 1018.7F   2/ 9   2/110/ 9
BUOY 41025       2050   80 84  360/  8/ 10 1017.1R   2/ 9   2/ 80/ 9
CAPE LOOKOUT NC  2100   81     230/  8/ 10 1016.9F
BUOY 41002       2050   85 85  240/  6/  8 1018.0S   3/ 6   3/200/ 6
BUOY 41010       2020   85 87  250/  4/  6 1018.6F
ST AUGUSTINE FL  2100   83 87  150/ 12/ 12 1018.2F


$$


USA.gov is the U.S. government's official web portal to all federal, state and local government web resources and services.